Regional Weather Roundup
Issued by NWS

Home | Current Version | Previous Version | Graphics & Text | Print | Product List | Glossary On
Versions: 1 2 3 4 5 6 7 8 9 10 11 12 13 14 15 16 17 18 19 20 21 22 23 24 25 26 27 28 29 30 31 32 33 34 35 36 37 38 39 40 41 42 43 44 45 46 47 48 49 50
957
ASUS43 KLMK 200902
RWRKY
KENTUCKY REGIONAL WEATHER ROUNDUP
NATIONAL WEATHER SERVICE LOUISVILLE KY
500 AM EDT THU JUL 20 2017

NOTE "FAIR" INDICATES FEW OR NO CLOUDS BELOW 12,000 FEET
WITH NO SIGNIFICANT WEATHER AND/OR OBSTRUCTIONS TO VISIBILITY.

KYZ001>023-026-027-061>063-070>075-201000-
WESTERN AND SOUTH CENTRAL KENTUCKY

CITY           SKY/WX    TMP DP  RH WIND       PRES   REMARKS
PADUCAH        PTCLDY    75  71  87 SW5       30.06F
HENDERSON      CLEAR     72  71  97 S3        30.06F
OWENSBORO      CLEAR     75  72  90 CALM      30.07F
HOPKINSVILLE   CLEAR     76  74  93 CALM      30.08F
BOWLING GREEN  CLEAR     75  74  96 CALM      30.09S
GLASGOW        NOT AVBL
$$

KYZ024-025-028>034-038-045-046-053-201000-
NORTH CENTRAL KENTUCKY

CITY           SKY/WX    TMP DP  RH WIND       PRES   REMARKS
LOUISVILLE/SDF CLEAR     78  71  79 SW3       30.07F
LOUISVILLE/LOU CLEAR     75  72  90 CALM      30.08F
FORT KNOX      CLEAR     70  70 100 CALM      30.07S FOG
$$

KYZ035>037-039>044-047>052-055>060-089>105-201000-
NORTHEAST KENTUCKY

CITY           SKY/WX    TMP DP  RH WIND       PRES   REMARKS
LEXINGTON      CLEAR     69  65  86 S5        30.10F
COVINGTON      PTCLDY    68  68 100 CALM      30.08S
FRANKFORT      PTCLDY    71  67  87 CALM      30.07F
$$

KYZ054-064>069-076>088-106>120-201000-
SOUTHEAST KENTUCKY

CITY           SKY/WX    TMP DP  RH WIND       PRES   REMARKS
JACKSON        PTCLDY    70  68  93 CALM      30.11F FOG
LONDON         CLEAR     67  65  93 CALM      30.11F FOG
SOMERSET       CLEAR     66  66 100 CALM      30.12S
MIDDLESBORO    CLEAR     65  65 100 CALM      30.14S
MONTICELLO     SUNNY     67  67 100 W10       30.12F FOG
$$





USA.gov is the U.S. government's official web portal to all federal, state and local government web resources and services.